User: anonymous   Login
Location: Fort Wayne
(41.1310°N, 85.1290°W)
Time: 09:04:11
(UTC-05:00)
Language:

COSMOS 2406 - Orbit

View from above orbital plane
View from above orbital plane
View from above satellite
View from above satellite

Ground track
Ground track

The orbit data is extracted from the following two-line orbital elements,

1 28352U 04021A   16341.86031569 -.00000549  00000-0 -27549-3 0  9990
2 28352  71.0033 166.2768 0012683  24.4257 335.7462 14.11627571643701
Epoch (UTC): 06 December 2016 20:38:51
Eccentricity: 0.0012683
inclination: 71.0033°
perigee height: 844 km
apogee height: 863 km
right ascension of ascending node: 166.2768°
argument of perigee: 24.4257°
revolutions per day: 14.11627571
mean anomaly at epoch: 335.7462°
orbit number at epoch: 64370

The dashed part of the orbit path shows where the satellite is in the earth's shadow,  

DLR